[ hide orbit diagram ]
For accurate long-term ephemerides, please instead use our Horizons system.This orbit viewer was implemented using two-body methods, and hence should not be used for determining accurate long-term trajectories (over several years or decades) or planetary encounter circumstances.
Orbital Elements at Epoch 2459000.5 (2020-May-31.0) TDB
Reference: JPL 18 (heliocentric ecliptic J2000)
Element | Value | Uncertainty (1-sigma) | Units |
e | .1571313310214535 | 4.824e-08 | |
a | 2.352921860590095 | 1.1878e-08 | au |
q | 1.983204116846099 | 1.16e-07 | au |
i | 3.461664948080296 | 5.9965e-06 | deg |
node | 357.949030145073 | 5.9863e-05 | deg |
peri | 48.59816280132198 | 6.2163e-05 | deg |
M | 170.677086271172 | 1.887e-05 | deg |
tp | 2458375.496566306682 (2018-Sep-13.99656631) | 6.6133e-05 | TDB |
period | 1318.286133453862 3.61 | 9.9826e-06 2.733e-08 | d yr |
n | .2730818377470246 | 2.0679e-09 | deg/d |
Q | 2.722639604334091 | 1.3745e-08 | au |
|
| | Orbit Determination Parameters
Additional Information
|
[ hide covariance matrix ]
Orbital Elements at Epoch 2457217.5 (2015-Jul-14.0) TDB
Reference: JPL 18 (heliocentric ecliptic J2000)
Element | Value | Uncertainty (1-sigma) | Units |
e | .1557781799809366 | 4.8044e-08 | |
q | 1.98698693268395 | 1.1531e-07 | au |
tp | 2457056.504025282417 (2015-Feb-03.00402528) | 6.1543e-05 | TDB |
node | 357.9763700000943 | 5.9825e-05 | deg |
peri | 48.6287329843352 | 6.218e-05 | deg |
i | 3.463107646170851 | 5.9942e-06 | deg |
|
| | Orbit Determination Parameters
Additional Information
|
Orbit Covariance (6×6)
|
|
e |
q |
tp |
node |
peri |
i |
e |
2.308211234320897E-15 |
-5.519757254212696E-15 |
-1.640518847320857E-12 |
-4.318146978104309E-15 |
-4.351602810901862E-13 |
-1.92735948468967E-16 |
q |
-5.519757254212696E-15 |
1.329576845459784E-14 |
4.152918897971592E-12 |
1.014272342309095E-14 |
1.10294538456196E-12 |
6.363215746900583E-16 |
tp |
-1.640518847320857E-12 |
4.152918897971592E-12 |
3.787497854165568E-9 |
-1.506666103619653E-12 |
1.051118897454581E-9 |
-2.692961666104676E-13 |
node |
-4.318146978104309E-15 |
1.014272342309095E-14 |
-1.506666103619653E-12 |
3.579068903184593E-9 |
-3.572502401904071E-9 |
9.278486849744088E-11 |
peri |
-4.351602810901862E-13 |
1.10294538456196E-12 |
1.051118897454581E-9 |
-3.572502401904071E-9 |
3.866339397578726E-9 |
-9.27052108699612E-11 |
i |
-1.92735948468967E-16 |
6.363215746900583E-16 |
-2.692961666104676E-13 |
9.278486849744088E-11 |
-9.27052108699612E-11 |
3.593062729377244E-11 |
|
Physical Parameter Table
Parameter |
Symbol |
Value |
Units |
Sigma |
Reference |
Notes |
absolute magnitude |
H |
16.8 |
|
n/a |
MPO469006 |
|
|
100182 (1994 AX10) Discovered 1994-Jan-08 by Spacewatch at Kitt Peak |
Reference: 20051019/Numbers.arc | Last Updated: 2005-10-26 |
|
|